TimeCST,TemperatureF,Dew PointF,Humidity,Sea Level PressureIn,VisibilityMPH,Wind Direction,Wind SpeedMPH,Gust SpeedMPH,PrecipitationIn,Events,Conditions,WindDirDegrees,DateUTC
12:53 AM,17.1,10.9,77,30.13,10.0,Variable,4.6,-,N/A,,Clear,0,2013-01-02 06:53:00
1:53 AM,17.1,10.9,77,30.12,10.0,Calm,Calm,-,N/A,,Clear,0,2013-01-02 07:53:00
2:53 AM,19.4,12.2,74,30.01,10.0,NW,16.1,-,N/A,,Clear,310,2013-01-02 08:53:00
3:53 AM,21.0,15.1,78,30.10,10.0,NW,16.1,-,N/A,,Overcast,310,2013-01-02 09:53:00
4:53 AM,23.0,19.0,85,30.12,10.0,NW,13.8,-,0.00,Snow,Light Snow,310,2013-01-02 10:53:00
5:53 AM,26.6,23.0,86,30.02,4.0,NW,10.4,-,N/A,Snow,Light Snow,310,2013-01-02 11:53:00
6:53 AM,28.0,25.0,88,30.14,4.0,NW,13.8,-,0.00,Snow,Light Snow,320,2013-01-02 12:53:00
7:53 AM,28.0,25.0,88,30.15,7.0,NW,15.0,-,0.00,Snow,Light Snow,320,2013-01-02 13:53:00
8:53 AM,28.0,24.1,85,30.15,10.0,NW,13.8,-,0.00,,Overcast,310,2013-01-02 14:53:00
9:53 AM,28.0,23.0,81,30.16,10.0,NW,12.7,-,N/A,,Partly Cloudy,320,2013-01-02 15:53:00
10:53 AM,30.0,24.1,79,30.19,10.0,NW,12.7,-,N/A,,Overcast,310,2013-01-02 16:53:00
11:53 AM,30.9,24.1,76,30.17,10.0,NW,17.3,25.3,N/A,,Overcast,310,2013-01-02 17:53:00
12:53 PM,32.0,23.0,69,30.16,10.0,NNW,17.3,25.3,N/A,,Overcast,330,2013-01-02 18:53:00
1:53 PM,30.9,21.9,69,30.16,10.0,NW,21.9,28.8,N/A,,Overcast,320,2013-01-02 19:53:00
2:53 PM,30.9,21.9,69,30.16,10.0,NW,19.6,-,N/A,,Mostly Cloudy,320,2013-01-02 20:53:00
3:53 PM,30.9,21.9,69,30.18,10.0,NW,19.6,26.5,N/A,,Overcast,320,2013-01-02 21:53:00
4:53 PM,30.9,23.0,72,30.19,10.0,NNW,15.0,-,N/A,,Overcast,330,2013-01-02 22:53:00
5:53 PM,30.0,23.0,75,30.20,10.0,NNW,13.8,-,N/A,,Overcast,330,2013-01-02 23:53:00
6:53 PM,28.0,21.0,75,30.22,10.0,NNW,15.0,-,N/A,,Partly Cloudy,330,2013-01-03 00:53:00
7:53 PM,24.1,19.0,81,30.25,10.0,NW,13.8,-,N/A,,Clear,320,2013-01-03 01:53:00
8:53 PM,21.9,17.1,82,30.29,10.0,NW,10.4,-,N/A,,Partly Cloudy,320,2013-01-03 02:53:00
9:53 PM,23.0,17.1,78,30.31,10.0,NNW,12.7,-,N/A,,Mostly Cloudy,330,2013-01-03 03:53:00
10:08 PM,23.0,17.6,80,30.22,10.0,NNW,17.3,20.7,N/A,,Mostly Cloudy,330,2013-01-03 04:08:00
10:26 PM,23.0,17.6,80,30.23,10.0,NNW,13.8,-,N/A,,Overcast,330,2013-01-03 04:26:00
10:43 PM,23.0,17.6,80,30.23,10.0,NW,9.2,-,N/A,,Overcast,320,2013-01-03 04:43:00
10:53 PM,23.0,17.1,78,30.32,10.0,NW,10.4,-,N/A,,Overcast,320,2013-01-03 04:53:00
11:01 PM,23.0,17.6,80,30.24,10.0,NW,10.4,-,N/A,,Overcast,310,2013-01-03 05:01:00
11:53 PM,23.0,19.0,85,30.34,10.0,NW,9.2,-,0.00,,Overcast,310,2013-01-03 05:53:00